Location: Cran-Gévrier
(45.9039°N, 6.1012°E)
Time: 11:07:00
(UTC+00:00)

SL-4 R/B - Visible Passes

Search period start: 28 September 2023 00:00
Search period end: 08 October 2023 00:00
Orbit: 419 x 625 km, 51.6° (Epoch: 28 September)

Date Brightness Start Highest point End Pass type
(mag) Time Alt. Az. Time Alt. Az. Time Alt. Az.
28 Sep 3.4 03:25:51 22° SSE 03:25:51 22° SSE 03:27:16 10° SE visible
01 Oct 4.7 19:44:58 10° SSW 19:45:15 12° SSW 19:45:15 12° SSW visible
02 Oct 3.7 19:30:20 10° SW 19:32:14 24° SSW 19:32:14 24° SSW visible
03 Oct 4.1 17:40:10 10° SSE 17:41:27 11° SE 17:42:44 10° ESE visible
03 Oct 2.6 19:15:43 10° SW 19:19:01 44° S 19:19:01 44° S visible
04 Oct 2.0 19:01:06 10° SW 19:05:24 62° SSE 19:05:36 61° SE visible
04 Oct 5.2 20:40:36 10° W 20:40:42 11° W 20:40:42 11° W visible
05 Oct 2.0 18:46:29 10° SW 18:50:50 70° SSE 18:52:01 44° E visible
05 Oct 4.8 20:26:07 10° W 20:27:07 16° W 20:27:07 16° W visible
06 Oct 2.0 18:31:53 10° SW 18:36:16 78° SSE 18:38:18 29° ENE visible
06 Oct 4.4 20:11:35 10° W 20:13:23 22° WNW 20:13:23 22° WNW visible
07 Oct 2.0 18:17:16 10° WSW 18:21:40 86° SSE 18:24:29 20° ENE visible
07 Oct 4.0 19:57:03 10° W 19:59:33 28° WNW 19:59:33 28° WNW visible
